GFSCGP_850_spd_240.txt.gz
Wind_Speed
20 13 16 19 18 10 6 9 7 5 2 7 8 7 9 15 19 21 21 24 23 22 21 20 21 20 18 19 18 17 16 17 15 12 11 11 12 10 8 8 9 7 8 9
15 20 20 17 16 15 10 10 9 5 5 6 3 8 10 15 19 23 24 25 25 24 24 23 23 23 22 21 19 19 18 19 17 12 10 12 11 11 8 8 7 7 10 8
23 23 22 18 18 15 17 14 9 7 5 10 7 14 10 12 17 20 22 24 24 26 26 26 24 25 24 24 22 20 20 20 19 14 12 13 14 12 11 8 6 8 10 8
24 24 23 20 20 19 19 16 9 8 8 6 2 1 13 13 16 20 25 25 27 27 27 27 27 26 26 25 23 22 21 22 22 19 15 13 13 14 12 11 9 8 8 7
24 23 20 22 22 20 19 9 12 12 12 11 12 7 5 14 14 19 27 30 30 30 30 30 30 29 27 25 25 25 24 23 21 22 19 15 13 14 12 11 11 10 9 7
24 22 19 24 22 21 19 5 9 11 13 13 15 7 7 11 14 18 24 31 29 30 31 31 30 29 29 27 26 25 27 28 26 25 26 22 16 15 15 13 10 8 8 8
24 22 19 18 22 21 23 17 11 12 12 13 6 7 13 1 5 9 22 31 32 30 31 31 33 32 31 30 28 26 26 30 29 27 28 27 21 19 17 16 12 10 8 10
19 25 23 18 26 22 23 23 15 18 13 14 13 7 6 3 2 9 16 26 30 32 33 34 34 34 33 31 30 28 27 29 30 29 29 30 27 20 18 18 15 12 10 10
21 24 25 17 20 23 23 24 23 22 17 13 12 14 9 10 5 9 13 19 28 33 34 35 34 35 34 33 32 31 30 31 31 30 31 32 30 26 20 17 21 15 13 11
9 14 16 22 16 20 21 18 20 16 23 19 17 16 8 12 9 6 8 16 24 31 34 33 33 34 35 35 33 31 32 33 33 30 31 32 32 30 27 22 20 18 15 15
12 12 16 14 21 23 15 15 18 18 19 16 16 16 12 14 2 4 4 9 20 26 32 33 32 32 34 33 32 32 33 35 33 32 30 30 32 30 28 24 23 22 20 19
15 10 14 21 20 21 25 24 22 16 23 18 15 14 8 8 1 6 6 3 10 25 30 31 31 30 29 31 32 31 30 32 37 35 33 30 28 31 29 30 25 25 23 21
0 12 13 18 11 12 19 23 25 23 18 20 17 17 12 9 6 7 7 5 5 15 22 26 27 29 30 31 31 31 32 31 33 38 35 32 27 28 29 27 26 27 25 20
5 14 16 15 18 16 20 23 24 24 18 19 20 22 15 9 1 6 7 5 4 9 17 23 24 25 25 26 28 30 28 28 30 31 32 36 31 28 27 27 26 31 29 25
5 11 16 21 14 13 20 20 25 25 25 22 18 22 19 14 3 7 6 6 7 7 10 16 18 19 20 20 21 23 24 25 26 30 32 36 35 32 27 27 26 27 32 31
8 7 7 15 18 15 16 20 19 25 25 22 22 16 2 9 6 4 5 6 8 7 5 4 5 10 13 16 18 19 21 23 24 28 27 31 37 37 34 30 26 25 30 33
9 6 7 14 14 17 20 19 18 15 16 19 22 20 7 7 9 8 5 8 8 7 6 5 3 6 9 10 14 17 17 18 21 21 21 22 28 34 36 34 32 31 30 30
10 8 7 9 7 16 5 3 6 10 5 4 2 8 11 13 14 12 9 7 8 6 6 5 4 2 7 13 10 12 14 16 17 18 18 19 21 26 30 29 30 31 32 33
15 9 6 9 12 7 8 7 7 14 10 2 2 8 14 13 13 12 10 7 7 6 6 6 6 5 5 5 11 12 9 11 13 14 15 13 17 20 25 27 28 28 25 27
12 11 7 10 12 13 12 8 2 4 8 8 6 11 14 9 5 3 6 8 9 8 7 7 7 6 7 8 7 11 13 15 18 17 16 17 28 23 23 22 24 22 25 27
9 7 13 12 11 6 6 2 4 7 4 7 7 8 9 5 2 14 9 8 8 9 9 10 10 9 8 5 6 8 8 8 12 16 16 20 31 23 21 22 23 21 23 23
8 9 8 13 12 8 11 4 4 4 5 8 8 8 13 16 16 13 11 8 7 8 7 8 9 10 9 9 7 8 8 8 7 6 9 13 16 18 17 17 19 20 22 23
4 6 5 4 4 5 8 9 6 4 7 13 14 13 14 14 14 13 11 9 8 6 8 7 8 9 8 9 7 8 8 8 8 7 3 3 5 9 9 7 9 11 14 16
2 5 1 6 5 7 8 9 10 14 12 15 16 16 16 15 12 12 11 10 9 9 10 9 10 10 13 11 11 10 10 7 6 6 7 6 3 1 6 4 7 4 10 12
2 8 4 4 6 7 8 8 10 11 13 15 15 15 14 13 12 10 9 9 7 6 4 4 4 5 9 13 13 12 11 10 7 8 9 8 9 10 9 6 6 6 13 13
1 3 3 2 11 6 7 5 8 10 13 10 10 10 10 9 9 7 6 4 3 3 3 2 2 1 0 0 4 8 10 11 10 8 9 10 11 12 11 11 8 9 7 10

GFSCGP_850_spd_243.txt.gz
Wind_Speed
22 16 19 21 21 21 9 14 10 7 6 9 12 8 14 17 20 24 23 25 24 23 21 21 20 19 20 19 19 18 17 17 16 13 12 12 11 11 12 10 10 11 9 9
21 23 23 21 20 17 6 15 9 7 11 10 9 11 14 18 18 24 25 27 26 25 25 23 23 21 22 22 21 20 19 18 16 14 12 11 12 11 8 12 10 9 10 9
26 24 24 22 22 19 20 19 12 7 7 13 12 13 14 17 19 32 33 28 27 27 28 27 26 25 24 24 22 21 20 19 18 15 13 15 13 12 10 8 8 10 12 10
26 28 24 24 22 21 21 18 16 5 9 11 12 7 9 16 18 21 30 28 29 29 28 29 28 27 26 25 23 21 21 20 19 17 14 17 13 12 13 10 12 11 11 9
28 28 28 25 26 22 19 16 20 16 13 16 19 7 9 17 17 20 24 34 33 33 32 32 31 30 28 26 24 23 22 21 21 20 16 16 17 13 13 12 12 11 12 10
29 30 26 27 23 23 21 21 13 15 15 15 18 13 11 17 17 19 24 28 31 32 33 33 30 29 29 27 25 24 24 24 23 21 22 19 18 15 14 13 10 12 10 10
26 32 25 30 23 20 26 20 14 13 13 14 19 14 11 7 5 13 21 28 32 33 34 33 34 34 32 32 30 27 27 25 24 22 24 21 19 17 15 17 12 12 11 11
22 22 32 23 23 25 26 24 17 20 14 16 18 9 8 5 3 15 19 28 31 30 33 36 37 37 35 34 32 30 30 29 27 24 24 25 22 21 18 18 15 12 11 10
21 27 21 25 24 24 25 25 25 24 18 13 15 18 10 8 9 9 13 26 31 32 32 34 36 36 36 36 36 33 32 30 30 27 26 28 28 24 20 19 19 13 12 10
22 21 28 30 23 26 28 21 21 18 23 21 17 12 13 19 12 11 14 17 23 30 30 31 34 37 36 35 34 33 32 30 29 29 29 28 32 30 24 24 18 20 15 16
15 19 21 24 25 26 21 23 18 21 20 17 16 13 9 5 14 11 8 13 20 26 31 31 32 34 35 35 35 34 33 31 30 31 29 28 28 29 30 22 21 23 20 17
18 18 15 20 19 25 23 24 25 15 24 17 17 12 9 19 14 8 6 5 7 23 29 30 30 30 33 34 34 34 33 32 32 32 31 31 27 28 27 30 25 21 24 23
13 16 15 21 21 16 21 26 25 23 19 23 16 16 11 10 10 9 10 3 5 13 23 28 29 29 30 32 33 34 34 32 29 31 33 29 28 27 30 28 26 25 23 25
10 16 16 17 18 18 25 24 28 25 19 19 20 19 14 15 16 9 11 7 3 5 18 22 25 26 27 29 32 33 33 32 31 30 31 33 30 27 28 30 29 30 29 28
10 16 20 26 26 23 21 25 27 25 25 24 21 20 19 14 13 17 12 10 9 7 7 2 18 20 22 24 28 29 29 30 30 32 33 31 31 29 27 28 30 30 32 30
16 12 17 21 21 26 22 19 26 29 28 25 25 21 16 9 22 18 12 13 15 13 11 12 8 14 15 18 21 22 25 26 27 29 31 31 31 34 34 31 29 32 33 35
14 14 15 15 17 21 24 22 18 20 26 23 21 21 13 18 18 14 11 12 11 8 7 4 6 6 3 8 17 19 20 22 23 26 27 29 29 30 32 34 32 30 33 35
14 12 10 16 17 25 16 20 21 18 16 21 23 6 15 16 17 15 12 10 10 7 3 3 2 5 7 8 5 14 18 18 19 20 21 23 25 26 26 27 29 28 27 28
17 12 12 15 17 13 8 4 10 13 13 7 11 10 11 13 14 15 10 9 7 4 3 3 4 5 6 7 8 14 16 17 17 18 17 19 19 19 24 22 21 22 24 28
16 13 10 16 19 10 16 13 9 5 5 5 3 6 4 5 7 5 8 7 7 6 4 3 6 2 3 3 11 13 17 19 19 20 16 20 21 20 15 18 15 9 21 25
12 10 16 16 14 3 10 17 12 12 3 10 7 7 5 3 9 15 10 7 6 7 8 8 8 5 8 3 5 10 15 15 20 21 21 23 26 25 28 24 30 37 35 27
12 11 11 18 19 15 19 4 9 7 13 9 9 3 11 12 14 13 10 8 7 7 6 6 7 7 9 9 6 9 6 8 11 15 15 17 17 18 23 17 22 31 28 25
6 5 5 4 2 7 10 9 8 13 5 10 11 12 13 14 12 10 8 7 6 6 6 6 6 8 8 7 9 7 6 8 5 4 5 5 8 11 14 16 15 18 25 39
9 10 3 4 8 7 9 6 7 14 10 13 13 14 14 15 12 11 9 8 8 8 8 8 9 10 10 9 9 8 8 9 5 5 7 6 6 3 5 7 10 8 11 19
3 6 4 3 5 6 8 8 7 15 14 16 15 15 15 16 13 11 9 8 8 6 6 6 6 6 8 9 11 12 10 10 8 6 6 6 5 7 7 7 4 4 7 8
4 2 2 3 10 7 5 3 5 12 14 10 13 14 13 11 10 9 9 7 6 5 5 5 4 5 4 3 3 3 4 7 8 6 5 4 5 5 7 7 6 10 12 11

GFSCGP_850_spd_249.txt.gz
Wind_Speed
12 4 8 11 14 16 15 10 6 9 9 7 18 11 19 27 26 26 28 25 30 30 32 30 27 28 28 27 24 24 24 19 21 25 22 20 17 20 20 12 15 20 22 18
8 11 11 16 16 18 16 8 8 7 13 10 15 18 20 22 26 32 30 27 31 34 35 32 29 32 31 29 24 24 24 24 23 22 26 18 18 18 24 15 10 21 22 18
9 9 15 18 17 18 17 8 5 4 6 11 3 8 19 18 25 33 34 30 34 36 40 36 34 34 32 31 25 28 27 26 24 25 25 22 15 17 20 17 12 14 20 19
9 15 19 19 15 15 15 18 14 13 9 8 12 7 19 22 21 23 33 31 35 35 42 39 39 37 35 32 26 31 29 27 28 27 24 21 23 25 20 17 16 16 17 21
9 12 15 20 20 14 14 19 16 10 11 6 11 2 7 23 22 24 29 30 34 36 42 44 42 39 36 34 32 33 32 27 31 30 23 23 25 21 21 19 20 19 18 20
10 23 15 14 19 21 17 18 17 14 5 6 15 8 8 19 23 22 28 34 37 35 42 47 44 42 39 37 33 33 34 29 34 28 23 25 27 22 20 25 24 18 17 20
10 17 18 22 18 22 18 13 8 8 5 5 14 10 16 18 22 25 29 41 43 39 40 48 46 45 42 41 37 34 34 33 37 32 28 28 30 27 17 24 30 19 15 13
7 11 10 17 15 13 17 10 8 10 7 6 12 7 15 15 29 44 45 46 45 44 36 50 51 49 44 43 42 37 35 32 36 36 33 32 34 31 16 26 22 13 15 17
5 11 23 17 18 18 23 15 14 10 13 10 7 8 17 12 13 25 36 38 43 46 42 49 52 52 49 44 45 41 36 31 35 38 35 31 36 32 21 27 20 14 17 19
5 8 14 19 13 21 16 16 11 8 11 14 6 4 5 7 15 14 23 41 45 47 43 44 53 54 52 48 44 44 38 33 32 36 38 33 33 33 25 28 27 23 21 10
8 4 15 17 6 12 15 14 14 9 7 10 6 7 10 10 2 6 21 43 45 47 48 46 46 53 53 49 45 45 41 37 33 33 36 35 34 34 31 27 28 29 22 10
5 5 5 21 20 18 17 13 13 11 9 4 5 16 3 6 9 10 9 46 45 50 50 47 49 54 55 52 49 47 43 41 36 30 33 34 33 36 35 34 30 28 29 22
6 4 6 16 8 7 5 15 19 10 6 16 5 6 3 12 10 10 20 17 27 34 50 47 50 50 55 54 51 49 46 43 37 32 32 32 34 34 37 37 36 32 31 29
11 3 7 10 19 17 21 24 22 21 6 11 14 15 5 12 19 12 33 34 26 11 28 47 48 55 55 55 53 51 49 45 39 34 33 30 33 34 32 33 39 36 33 33
1 7 10 16 19 16 18 22 20 17 16 10 11 6 5 12 9 17 19 33 29 25 23 23 23 38 43 46 50 47 47 47 42 39 37 33 27 30 31 30 30 33 39 37
11 8 11 17 18 18 20 25 18 16 17 9 4 4 17 27 26 31 26 22 30 30 25 26 31 30 27 21 44 49 48 49 44 42 39 35 31 29 31 31 27 28 30 36
7 7 6 11 13 18 11 11 19 20 19 14 7 8 19 12 19 15 17 21 16 15 18 20 31 36 40 25 29 32 42 45 43 40 38 35 32 29 28 31 30 29 29 28
12 6 3 12 12 12 8 14 12 14 16 27 5 16 15 22 22 26 26 18 12 3 4 13 16 21 18 16 23 25 24 33 33 34 33 33 32 29 28 29 31 32 30 29
16 9 7 9 9 13 19 8 7 8 13 21 12 11 23 30 31 20 15 15 11 9 11 15 13 13 8 11 7 17 19 18 21 19 18 25 28 28 30 32 33 33 33 33
14 9 8 9 6 11 3 12 11 8 1 24 24 1 6 9 5 3 6 12 11 14 14 13 12 11 13 12 8 14 14 13 19 18 19 19 18 22 27 29 32 35 35 34
4 6 8 12 9 5 3 12 13 5 6 22 26 24 10 6 12 19 13 13 11 12 15 13 12 8 8 7 7 8 8 8 16 21 19 17 19 23 27 30 32 34 35 31
3 1 4 5 8 11 21 8 1 5 11 18 19 23 22 23 20 19 16 15 15 15 16 16 16 16 13 10 6 3 2 3 4 13 15 19 18 19 18 22 23 27 23 24
3 3 2 1 4 10 14 5 4 3 20 21 22 14 15 15 17 18 15 13 14 16 18 18 19 18 19 14 12 11 9 4 3 2 2 1 3 8 12 16 10 11 14 18
4 3 3 3 5 14 16 13 2 11 21 22 18 12 8 4 14 17 22 23 21 21 20 19 19 18 17 14 11 8 8 10 11 9 9 8 8 3 4 3 6 9 11 13
6 5 2 2 2 17 19 14 5 12 18 24 22 12 9 7 9 15 19 19 19 20 16 15 15 14 13 12 12 8 10 11 14 12 9 8 9 5 4 2 4 12 11 12
4 2 3 4 7 5 23 10 2 14 23 23 21 11 10 10 11 11 17 19 19 17 17 16 15 17 16 15 14 11 7 7 7 8 9 12 10 5 4 7 7 2 5 8

GFSCGP_850_spd_252.txt.gz
Wind_Speed
6 4 4 8 8 11 10 10 10 7 10 10 19 11 16 19 27 27 31 28 33 39 39 37 38 33 32 28 25 19 22 24 27 26 21 20 19 18 15 15 26 28 23 21
6 4 7 6 10 11 10 7 9 9 10 10 8 12 13 21 29 35 34 31 33 39 40 39 39 37 37 31 28 24 24 24 30 27 26 22 23 19 16 18 22 24 23 19
4 7 11 10 9 12 15 4 6 7 4 11 8 6 9 17 22 28 33 36 32 43 44 43 42 40 38 35 32 27 26 23 28 31 27 21 20 21 21 20 23 25 23 18
4 7 6 10 7 4 9 13 10 6 3 5 7 5 6 17 18 21 29 32 33 42 48 47 44 42 40 37 34 31 29 27 30 29 28 24 22 23 26 24 18 25 26 21
9 5 7 8 6 6 10 16 12 10 6 1 2 1 8 14 19 16 29 36 37 43 51 51 49 44 42 39 37 33 33 30 28 30 30 27 23 23 22 22 21 22 25 25
8 8 4 5 12 9 12 12 12 4 5 4 8 7 11 10 27 23 31 37 41 41 52 53 50 46 45 42 38 34 36 35 31 34 32 28 24 24 25 24 21 21 23 28
7 6 7 3 8 12 3 6 5 4 1 6 11 8 11 18 22 26 30 44 46 44 49 53 53 52 50 47 43 37 36 39 35 39 36 30 28 28 27 27 25 23 22 24
3 7 5 6 1 9 12 8 5 5 3 7 6 7 14 12 23 39 46 51 44 45 48 51 56 56 53 50 46 40 37 39 36 43 40 33 30 30 27 27 29 27 21 17
4 4 9 8 6 2 9 3 9 5 6 5 8 8 11 8 9 27 36 38 42 45 43 51 54 56 55 52 49 44 39 37 40 45 41 36 31 33 32 24 29 29 24 15
3 5 5 10 7 7 1 6 4 2 5 12 5 6 6 7 6 19 24 35 41 45 40 49 50 56 56 53 49 46 40 35 39 42 44 41 36 36 34 26 26 30 23 19
1 3 7 5 2 3 10 7 5 4 6 9 11 9 8 9 4 13 15 34 44 44 47 48 52 54 57 54 51 48 45 39 36 39 43 43 39 37 35 31 30 29 27 24
2 3 2 8 18 10 8 3 2 5 9 6 4 9 8 7 10 13 16 27 33 42 48 47 52 51 48 52 52 49 48 44 39 36 38 42 39 39 40 34 33 32 29 26
5 3 5 10 8 7 5 12 8 9 3 8 8 13 2 8 9 21 18 14 12 10 21 36 43 47 51 51 54 51 49 47 43 40 35 38 42 41 40 41 35 36 34 29
5 1 4 4 8 9 9 14 12 5 5 9 9 12 7 7 7 12 28 21 17 11 8 18 21 40 53 54 54 54 50 47 47 43 40 38 39 39 41 44 42 40 37 31
4 4 2 8 11 8 11 14 14 12 13 7 18 15 11 8 13 4 3 31 20 11 10 5 13 26 39 50 46 52 51 49 48 46 43 40 35 36 38 40 41 43 42 41
2 4 5 6 9 7 15 15 10 6 11 6 9 2 4 2 32 18 4 8 25 19 13 8 2 6 39 48 48 43 48 50 48 46 43 38 35 34 34 36 38 39 41 43
4 3 3 8 6 15 13 3 3 6 8 9 6 7 7 3 8 13 14 13 10 12 12 11 12 2 23 45 50 51 48 47 49 45 44 42 39 37 33 29 33 34 34 34
7 4 4 9 3 7 7 2 2 9 13 15 16 10 7 5 15 19 14 19 15 16 15 12 15 1 14 29 40 48 46 46 46 47 46 43 41 39 37 34 31 31 33 31
6 4 4 4 5 12 12 9 2 5 7 18 16 5 8 7 13 21 18 17 13 12 15 12 10 8 5 9 16 17 26 31 38 39 39 40 40 39 37 37 34 31 31 32
2 4 4 1 3 4 4 12 16 14 2 18 24 17 4 14 4 3 13 16 19 15 16 13 15 14 4 7 9 17 22 19 13 25 28 21 18 27 31 32 33 33 33 31
4 4 3 4 4 6 6 26 20 4 4 11 16 12 19 9 5 9 14 16 15 16 16 15 10 14 16 15 10 7 13 14 22 14 23 20 30 30 26 30 34 34 31 29
3 1 3 3 3 7 12 7 4 2 1 16 17 12 13 16 13 16 15 17 18 19 18 16 14 12 18 20 14 16 17 13 12 11 9 11 18 23 11 29 25 17 11 17
3 5 3 5 4 4 4 1 8 8 10 7 13 7 9 13 13 14 12 15 17 18 19 18 19 18 17 17 17 15 13 6 4 4 6 5 3 4 5 8 7 5 5 7
4 3 3 2 1 5 7 4 4 6 6 14 16 13 16 10 19 22 20 20 19 17 18 16 17 18 18 15 14 17 15 7 8 9 7 4 6 6 6 6 5 6 6 10
4 3 3 4 10 13 13 1 4 5 4 13 16 17 19 17 15 19 19 17 13 13 13 15 17 19 20 19 14 14 15 17 15 13 11 7 9 14 11 7 8 7 5 2
5 5 3 4 8 10 8 10 1 7 8 11 21 21 16 17 18 14 15 17 15 14 12 13 13 13 15 18 19 16 12 9 9 11 15 20 11 10 12 11 11 11 13 14

GFSCGP_850_spd_258.txt.gz
Wind_Speed
4 5 2 2 2 2 2 3 4 5 5 7 15 11 11 21 21 22 27 28 32 36 33 31 30 29 29 29 27 23 22 20 19 20 22 21 19 18 18 23 24 26 24 22
6 1 3 3 2 3 3 2 4 5 2 8 7 14 9 22 30 33 31 31 33 36 35 35 34 34 32 31 30 27 24 22 22 21 22 20 18 17 17 17 24 26 25 21
5 2 2 4 5 5 3 1 3 4 7 3 1 5 8 14 21 24 27 32 33 40 41 38 38 38 36 35 34 30 26 22 25 25 22 22 21 19 19 21 22 26 26 21
1 3 4 5 2 4 2 5 3 5 4 2 3 4 4 7 18 17 29 32 35 38 42 42 41 41 42 38 36 33 29 25 25 29 26 26 23 23 21 21 23 25 25 22
3 5 5 5 4 1 6 4 5 3 4 1 2 2 6 6 11 18 26 35 40 46 46 47 45 45 44 42 40 36 32 28 27 31 30 30 25 21 17 17 19 23 25 23
3 3 5 3 4 2 5 1 5 4 3 1 6 6 5 6 13 17 26 37 43 45 49 50 48 45 46 45 43 41 37 32 29 31 33 33 30 24 23 21 20 21 24 24
7 4 5 5 7 7 11 6 3 3 0 5 2 0 7 6 5 8 18 35 42 42 41 48 50 49 50 50 48 45 41 37 32 32 34 35 30 27 26 25 23 23 23 27
3 6 7 8 1 4 5 4 4 3 3 5 5 6 5 7 14 20 24 30 34 38 44 49 54 53 52 53 51 49 45 42 38 35 35 38 34 33 30 28 24 24 25 22
3 4 5 2 3 1 5 3 2 2 2 2 4 8 8 7 10 14 19 16 29 39 44 52 55 56 52 55 54 52 48 44 42 38 36 39 37 38 35 30 27 24 21 21
3 2 2 6 6 4 3 3 3 3 2 4 5 5 5 10 13 20 24 22 23 33 42 45 50 56 55 53 55 52 48 45 43 41 38 38 40 39 37 33 30 27 25 23
3 3 6 2 2 4 5 4 3 3 4 4 3 6 5 5 9 20 25 31 33 24 39 44 48 53 56 53 53 55 51 48 47 43 40 39 42 43 40 38 34 29 27 24
2 4 2 6 5 4 4 4 4 4 6 2 2 6 10 8 18 24 34 37 40 23 29 37 38 39 46 51 51 54 54 51 47 44 42 39 42 43 42 41 37 33 31 27
3 1 3 8 6 5 5 2 2 2 2 4 2 6 14 24 25 31 32 40 36 23 21 32 35 42 46 49 51 52 54 53 49 45 44 40 41 44 45 44 40 36 34 31
4 3 7 6 7 3 3 3 5 3 2 5 7 17 10 18 14 32 34 34 31 22 21 30 35 42 45 48 49 50 51 53 51 48 46 43 40 42 42 44 44 40 36 34
4 3 5 6 8 3 6 8 8 7 7 7 12 22 15 8 14 22 24 27 24 21 14 28 33 35 36 36 42 43 46 48 49 48 47 45 41 38 41 41 45 43 38 35
2 3 4 4 7 7 5 8 14 14 15 16 12 13 2 19 13 15 21 22 16 16 10 5 27 27 24 33 34 36 37 38 41 44 46 44 43 40 37 38 39 44 42 39
3 4 2 5 4 6 5 11 11 6 7 6 7 7 7 6 6 10 16 18 13 9 8 5 7 15 22 24 33 32 26 30 35 37 39 42 43 42 40 35 34 35 39 40
4 4 2 4 2 4 6 4 7 8 10 7 6 5 10 10 7 10 9 11 9 8 6 6 5 11 14 21 26 22 24 31 29 31 33 36 35 37 40 39 36 33 32 32
2 4 1 1 3 6 5 4 4 2 10 8 8 6 13 14 9 9 5 6 5 6 1 2 5 1 9 14 21 26 21 16 25 26 29 32 32 36 33 35 37 35 28 25
4 3 3 2 3 5 6 3 8 0 8 2 7 9 6 13 6 4 5 5 4 4 3 4 7 9 6 8 9 17 18 11 25 24 25 25 30 21 21 26 27 27 25 23
4 3 3 3 5 8 5 9 0 4 7 23 19 17 13 2 4 13 32 11 11 11 11 7 5 11 7 9 10 21 28 25 19 18 21 16 22 16 12 12 14 10 12 12
4 2 3 1 3 7 2 5 1 9 27 21 22 24 24 16 21 23 32 27 15 16 14 14 14 15 12 8 10 19 21 13 15 6 9 11 7 5 1 10 10 16 9 8
3 7 3 8 6 9 14 16 28 22 24 35 26 29 26 20 19 18 24 37 19 19 19 17 19 17 18 17 14 11 11 12 11 6 8 10 13 2 3 2 15 18 14 17
4 6 4 2 5 15 30 32 34 23 20 27 26 26 23 16 13 14 30 11 24 20 17 19 19 22 21 19 19 18 15 11 11 11 10 4 11 18 12 10 20 18 17 17
5 4 3 6 18 21 16 12 18 25 20 26 21 23 12 6 2 2 16 15 21 24 20 21 21 20 22 25 25 21 17 13 13 15 14 14 9 11 12 12 11 7 7 7
7 6 4 5 8 6 22 24 23 21 21 19 18 11 8 9 6 1 6 9 13 22 22 22 20 21 22 21 20 18 17 15 12 11 13 16 17 13 11 8 6 5 5 6